This is the latest recevied weather packets stored in our database for station/object K5YNC. If no packets are shown the sender has not sent any weather packets the latest 10 day(s).
| Time | Temp. | Humidity | Pressure | Rain* | Wind** | Luminosity | Snow |
|---|---|---|---|---|---|---|---|
| 1777986717 | 21.67° C | 79% | 1004.4 hPa | 0 mm | - | 87 W/m² | - |
| 1777986415 | 21.11° C | 79% | 1004.5 hPa | 0 mm | - | 81 W/m² | - |
| 1777986113 | 21.11° C | 79% | 1004.3 hPa | 0 mm | - | 77 W/m² | - |
| 1777985809 | 21.11° C | 79% | 1004.2 hPa | 0 mm | - | 71 W/m² | - |
| 1777985506 | 21.11° C | 79% | 1004.3 hPa | 0 mm | - | 67 W/m² | - |
| 1777985203 | 21.11° C | 79% | 1004.2 hPa | 0 mm | - | 61 W/m² | - |
| 1777984899 | 21.11° C | 80% | 1004.3 hPa | 0 mm | - | 56 W/m² | - |
| 1777984595 | 21.11° C | 79% | 1004.2 hPa | 0 mm | - | 47 W/m² | - |
| 1777984292 | 21.11° C | 79% | 1004 hPa | 0 mm | - | 41 W/m² | - |
| 1777983989 | 21.11° C | 79% | 1004 hPa | 0 mm | - | 34 W/m² | - |
| 1777983686 | 21.11° C | 79% | 1004 hPa | 0 mm | - | 34 W/m² | - |
| 1777983382 | 21.11° C | 79% | 1004 hPa | 0 mm | - | 30 W/m² | - |
| 1777983079 | 21.11° C | 80% | 1003.9 hPa | 0 mm | - | 23 W/m² | - |
| 1777982775 | 21.11° C | 79% | 1003.9 hPa | 0 mm | - | 12 W/m² | - |
| 1777982471 | 21.11° C | 79% | 1003.9 hPa | 0 mm | - | 9 W/m² | - |
| 1777982166 | 21.11° C | 79% | 1003.8 hPa | 0 mm | - | 7 W/m² | - |
| 1777981864 | 20.56° C | 80% | 1003.4 hPa | 0 mm | - | 5 W/m² | - |
| 1777981561 | 21.11° C | 79% | 1003.6 hPa | 0 mm | - | 3 W/m² | - |
| 1777981257 | 21.11° C | 79% | 1003.5 hPa | 0 mm | - | 2 W/m² | - |
| 1777980953 | 21.11° C | 79% | 1003.4 hPa | 0 mm | - | 1 W/m² | - |
| 1777980650 | 21.11° C | 79% | 1003.5 hPa | 0 mm | - | 1 W/m² | - |
| 1777980346 | 21.11° C | 79% | 1003.4 hPa | 0 mm | - | 0 W/m² | - |
| 1777980045 | 21.11° C | 79% | 1003.4 hPa | 0 mm | - | 0 W/m² | - |
| 1777979738 | 21.11° C | 79% | 1003.6 hPa | 0 mm | - | 0 W/m² | - |
| 1777979434 | 21.11° C | 79% | 1003.6 hPa | 0 mm | - | 0 W/m² | - |
* Rain latest hour (hover to see other rain measurements)
** Current wind speed in m/s (hover to see current wind gust speed)